Torna al catalogo

COSMOS 1691

AttivoNavigazionePO
NORAD 16139·PAYLOAD·🇷🇺 Russia

Lanciato Oct 9, 1985 da Plesetsk Cosmodrome

Loading…

Prossimi Passaggi (prossime 24 ore)

TLE

AggiornatoSource: Space-Track

Epoca: Sep 14, 2026, 08:08 UTC

1 16139U 85094B   26257.33927244 -.00000001  00000-0 -64835-4 0  9995
2 16139  82.6087 233.2497 0001263  66.9649  96.5976 12.62477204886486

Traccia COSMOS 1691 in tempo reale con AllMySat

Download on the App Store